FW1417 Hoboken NJ US current weather conditions

sailwx.info

Wind from 333 at 1 knots

Air temperature 23.9° C
Dewpoint 15.9° C

Last reported at 2020-Jul-14 06:07 UTC.
Time now 2020-Jul-14 06:46 UTC

Location: N 40°45' W 074°02'.
View on Google Maps.

See reports from other nearby stations

  
Tides and Currents Weather Stations Pressure Air Temp Water Temp Dewpoint Dewpoint Depression Visibility Wind Speed Wind Dir Waves Ship Positions
date/time (UTC)wind fromknots sea level pressurealtimeterstation pressurevisibilityair tempwater tempwave heightnotes
2020-Jul-14 06:07 333 1 23.9
2020-Jul-14 06:02 275 1 23.9
2020-Jul-14 05:57 340 0 23.9
2020-Jul-14 05:52 266 1 23.9
2020-Jul-14 05:47 263 2 24.4
2020-Jul-14 05:42 263 1 24.4
2020-Jul-14 05:37 283 0 24.4
2020-Jul-14 05:32 279 24.4
2020-Jul-14 05:27 279 24.4
2020-Jul-14 05:22 278 1 24.4
2020-Jul-14 05:17 269 24.4
2020-Jul-14 05:12 316 24.4
2020-Jul-14 05:07 321 0 24.4
2020-Jul-14 05:02 297 2 25.0
2020-Jul-14 04:57 296 0 25.0
2020-Jul-14 04:52 320 1 25.0
2020-Jul-14 04:47 286 1 25.0
2020-Jul-14 04:42 315 1 25.0
2020-Jul-14 04:37 296 2 25.0
2020-Jul-14 04:32 302 1 25.0
2020-Jul-14 04:27 295 0 25.6
2020-Jul-14 04:22 261 0 25.6
2020-Jul-14 04:17 219 25.6
2020-Jul-14 04:12 212 0 gusting 6 25.6
2020-Jul-14 04:07 315 1 gusting 5 25.6
2020-Jul-14 04:02 336 0 gusting 6 25.6
2020-Jul-14 03:57 269 1 gusting 6 25.6
2020-Jul-14 03:52 263 1 gusting 5 25.6
2020-Jul-14 03:47 345 1 gusting 7 26.1
2020-Jul-14 03:42 335 0 gusting 7 26.1
2020-Jul-14 03:37 261 2 gusting 7 26.1
2020-Jul-14 03:32 292 2 gusting 8 26.1
2020-Jul-14 03:27 005 1 gusting 8 26.1
2020-Jul-14 03:22 237 3 gusting 6 26.1
2020-Jul-14 03:17 261 1 gusting 6 26.7
2020-Jul-14 03:12 315 26.7
2020-Jul-14 03:07 297 1 gusting 10 26.7
2020-Jul-14 03:02 274 4 gusting 10 26.7
2020-Jul-14 02:57 286 1 gusting 6 26.7
2020-Jul-14 02:52 293 2 gusting 6 26.7
2020-Jul-14 02:47 285 27.2
2020-Jul-14 02:42 288 1 gusting 10 27.2
2020-Jul-14 02:37 292 2 gusting 10 27.2
2020-Jul-14 02:32 240 0 gusting 6 27.2
2020-Jul-14 02:27 238 3 gusting 6 27.2
2020-Jul-14 02:22 258 1 gusting 7 27.2
2020-Jul-14 02:17 240 2 gusting 7 27.2
2020-Jul-14 02:12 261 1 gusting 6 27.2
2020-Jul-14 02:07 263 1 gusting 7 27.2
2020-Jul-14 02:02 269 2 gusting 7 27.2
2020-Jul-14 01:57 275 1 gusting 7 27.8
2020-Jul-14 01:52 261 2 gusting 7 27.8
2020-Jul-14 01:47 209 0 gusting 7 27.8
2020-Jul-14 01:42 285 2 gusting 6 27.8
2020-Jul-14 01:37 244 1 gusting 6 27.8
2020-Jul-14 01:32 260 1 gusting 6 27.8
2020-Jul-14 01:27 259 3 gusting 8 27.8
2020-Jul-14 01:22 233 4 gusting 8 27.8
2020-Jul-14 01:17 257 1 gusting 6 28.3
2020-Jul-14 01:12 253 2 gusting 6 28.3
2020-Jul-14 01:07 261 2 gusting 6 28.3
2020-Jul-14 01:02 187 4 gusting 6 28.3
2020-Jul-14 00:57 253 1 gusting 8 28.3
2020-Jul-14 00:52 246 2 gusting 8 28.3
2020-Jul-14 00:47 311 3 gusting 8 28.3
2020-Jul-14 00:42 226 4 gusting 8 28.3
2020-Jul-14 00:37 268 2 gusting 6 28.9
2020-Jul-14 00:32 270 2 gusting 8 28.9
2020-Jul-14 00:27 249 2 gusting 8 28.9
2020-Jul-14 00:22 234 2 gusting 8 28.9
2020-Jul-14 00:17 287 3 gusting 8 29.4
2020-Jul-14 00:12 288 3 gusting 7 29.4
2020-Jul-14 00:07 246 1 gusting 8 29.4
2020-Jul-14 00:02 241 3 gusting 8 29.4
2020-Jul-13 23:57 278 4 gusting 8 30.0
2020-Jul-13 23:52 251 1 gusting 7 30.0
2020-Jul-13 23:42 238 0 gusting 7 30.0
2020-Jul-13 23:37 257 3 gusting 11 30.0
2020-Jul-13 23:32 005 5 gusting 11 30.0
2020-Jul-13 23:27 260 2 gusting 8 30.6
2020-Jul-13 23:22 262 3 gusting 8 30.6
2020-Jul-13 23:17 277 5 gusting 10 30.6
2020-Jul-13 23:12 219 4 gusting 10 30.6
2020-Jul-13 23:07 261 1 gusting 10 30.6
2020-Jul-13 23:02 272 4 gusting 10 30.6
2020-Jul-13 22:57 267 3 gusting 10 30.6
2020-Jul-13 22:52 282 3 gusting 10 30.6
2020-Jul-13 22:47 336 2 gusting 12 30.6
2020-Jul-13 22:42 285 4 gusting 12 30.6
2020-Jul-13 22:37 223 3 gusting 8 30.6
2020-Jul-13 22:32 291 4 gusting 10 30.6
2020-Jul-13 22:27 192 4 gusting 10 30.6
2020-Jul-13 22:22 327 5 gusting 13 31.1
2020-Jul-13 22:17 034 5 gusting 13 31.1
2020-Jul-13 22:12 252 1 gusting 10 31.1
2020-Jul-13 22:07 335 1 gusting 10 31.1
2020-Jul-13 22:04 156 5 gusting 12 31.1
2020-Jul-13 21:57 270 7 gusting 12 31.7
2020-Jul-13 21:47 188 5 gusting 11 31.7
2020-Jul-13 21:42 284 6 gusting 11 31.7
2020-Jul-13 21:37 217 4 gusting 8 31.7
2020-Jul-13 21:32 284 2 gusting 10 31.7
2020-Jul-13 21:27 271 4 gusting 11 31.1
2020-Jul-13 21:22 263 5 gusting 11 31.7
2020-Jul-13 21:17 279 5 gusting 13 31.7
2020-Jul-13 21:12 325 5 gusting 13 31.7
2020-Jul-13 21:07 261 5 gusting 13 31.7
2020-Jul-13 21:02 283 4 gusting 13 31.7
2020-Jul-13 20:57 284 2 gusting 10 31.7
2020-Jul-13 20:52 319 2 gusting 10 31.7
2020-Jul-13 20:47 221 4 gusting 10 32.2
2020-Jul-13 20:42 280 4 gusting 11 32.2
2020-Jul-13 20:37 246 4 gusting 11 32.2
2020-Jul-13 20:32 247 4 gusting 11 32.2
2020-Jul-13 20:27 142 2 gusting 8 31.7
2020-Jul-13 20:22 289 2 gusting 10 31.1
2020-Jul-13 20:17 244 3 gusting 10 31.1
2020-Jul-13 20:12 342 3 gusting 10 31.7
2020-Jul-13 20:07 277 5 gusting 10 31.7
2020-Jul-13 20:02 277 2 gusting 10 31.7
2020-Jul-13 19:57 262 4 gusting 10 32.2
2020-Jul-13 19:52 265 2 gusting 11 31.7
2020-Jul-13 19:47 242 6 gusting 11 31.7
2020-Jul-13 19:42 255 5 gusting 10 31.7
2020-Jul-13 19:37 263 3 gusting 10 31.7
2020-Jul-13 19:32 250 4 gusting 10 32.2
2020-Jul-13 19:27 299 3 gusting 10 31.7
2020-Jul-13 19:22 295 5 gusting 10 31.7
2020-Jul-13 19:17 257 4 gusting 10 31.7
2020-Jul-13 19:12 257 3 gusting 10 31.7
2020-Jul-13 19:07 188 3 gusting 11 31.7
2020-Jul-13 19:02 289 5 gusting 11 31.7
2020-Jul-13 18:57 311 4 gusting 11 32.2
2020-Jul-13 18:52 317 3 gusting 10 32.2
2020-Jul-13 18:47 284 3 gusting 10 32.2
2020-Jul-13 18:42 225 4 gusting 10 32.2
2020-Jul-13 18:37 275 4 gusting 10 32.2
2020-Jul-13 18:32 239 4 gusting 12 32.2
2020-Jul-13 18:27 286 4 gusting 12 32.2
2020-Jul-13 18:22 236 2 gusting 6 32.2
2020-Jul-13 18:17 332 2 gusting 10 32.2
2020-Jul-13 18:12 247 2 gusting 10 31.7
2020-Jul-13 18:07 281 5 gusting 10 31.7
2020-Jul-13 18:02 332 3 gusting 8 31.7
2020-Jul-13 17:58 250 2 gusting 7 31.7
2020-Jul-13 17:52 256 3 gusting 10 32.2
2020-Jul-13 17:47 267 2 gusting 10 32.2
2020-Jul-13 17:42 187 3 gusting 7 32.2
2020-Jul-13 17:37 350 2 gusting 7 32.2
2020-Jul-13 17:32 285 2 gusting 6 31.7
2020-Jul-13 17:27 340 2 gusting 10 31.1
2020-Jul-13 17:22 252 2 gusting 10 31.1
2020-Jul-13 17:17 223 3 gusting 8 31.1
2020-Jul-13 17:12 265 4 gusting 10 31.1
2020-Jul-13 17:07 269 4 gusting 10 31.1
2020-Jul-13 17:02 305 4 gusting 10 31.1
2020-Jul-13 16:57 264 4 gusting 10 31.1
2020-Jul-13 16:52 259 3 gusting 10 31.1
2020-Jul-13 16:47 271 5 gusting 10 31.1
2020-Jul-13 16:42 302 2 gusting 8 31.7
2020-Jul-13 16:37 277 2 gusting 8 31.1
2020-Jul-13 16:32 284 3 gusting 8 31.1
2020-Jul-13 16:27 278 3 gusting 10 31.1
2020-Jul-13 16:22 313 3 gusting 10 31.1
2020-Jul-13 16:17 024 2 gusting 8 30.6
2020-Jul-13 16:12 279 3 gusting 8 30.6
2020-Jul-13 16:07 305 2 gusting 8 30.6
2020-Jul-13 16:02 257 1 gusting 8 30.6
2020-Jul-13 15:57 130 3 gusting 10 30.0
2020-Jul-13 15:52 310 5 gusting 10 30.6
2020-Jul-13 15:47 320 4 gusting 10 31.1
2020-Jul-13 15:42 350 1 gusting 6 31.1
2020-Jul-13 15:37 300 2 gusting 6 31.1
2020-Jul-13 15:32 175 0 gusting 6 30.6
2020-Jul-13 15:27 274 0 gusting 6 30.6
2020-Jul-13 15:22 284 3 gusting 8 30.0
2020-Jul-13 15:17 257 3 gusting 8 30.0
2020-Jul-13 15:12 285 2 gusting 8 30.0
2020-Jul-13 15:07 194 2 gusting 8 30.0
2020-Jul-13 15:02 208 4 gusting 8 30.0
2020-Jul-13 14:57 263 2 gusting 7 30.0
2020-Jul-13 14:52 262 2 gusting 6 30.0
2020-Jul-13 14:47 275 2 gusting 5 30.0
2020-Jul-13 14:42 277 2 gusting 6 30.0
2020-Jul-13 14:37 279 2 gusting 6 30.0
2020-Jul-13 14:32 338 0 gusting 6 30.0
2020-Jul-13 14:27 212 0 gusting 6 30.0
2020-Jul-13 14:22 236 2 gusting 6 30.0
2020-Jul-13 14:17 128 30.0
2020-Jul-13 14:12 224 1 gusting 4 30.0
2020-Jul-13 14:07 161 1 gusting 4 29.4
2020-Jul-13 14:02 009 0 gusting 4 29.4
2020-Jul-13 13:57 265 28.9
2020-Jul-13 13:52 188 1 gusting 6 28.9
2020-Jul-13 13:47 246 1 gusting 6 28.3
2020-Jul-13 13:42 237 2 gusting 4 28.3
2020-Jul-13 13:37 331 1 gusting 6 28.3
2020-Jul-13 13:32 327 1 gusting 6 28.3
2020-Jul-13 13:27 340 1 gusting 6 28.3
2020-Jul-13 13:22 022 0 gusting 2 27.8
2020-Jul-13 13:17 250 27.8
2020-Jul-13 13:12 250 0 gusting 6 27.2
2020-Jul-13 13:07 250 0 gusting 6 26.7
2020-Jul-13 13:02 305 26.1
2020-Jul-13 12:57 324 0 gusting 5 25.6
2020-Jul-13 12:52 286 1 gusting 6 25.6
2020-Jul-13 12:47 278 1 gusting 6 25.0
2020-Jul-13 12:42 287 0 gusting 5 25.0
2020-Jul-13 12:37 288 1 gusting 6 25.0
2020-Jul-13 12:32 340 2 gusting 6 25.0
2020-Jul-13 12:27 277 3 gusting 6 24.4
2020-Jul-13 12:22 340 1 gusting 6 24.4
2020-Jul-13 12:17 349 2 gusting 6 24.4
2020-Jul-13 12:12 323 1 gusting 6 24.4
2020-Jul-13 12:07 313 1 gusting 6 23.9
2020-Jul-13 12:02 280 1 gusting 6 23.9
2020-Jul-13 11:57 250 1 gusting 4 23.9
2020-Jul-13 11:52 259 23.9
2020-Jul-13 11:47 253 0 gusting 2 23.9
2020-Jul-13 11:42 231 23.9
2020-Jul-13 11:37 218 23.9
2020-Jul-13 11:32 217 23.3
2020-Jul-13 11:27 219 23.3
2020-Jul-13 11:22 225 23.3
2020-Jul-13 11:17 225 23.3
2020-Jul-13 11:12 225 23.3
2020-Jul-13 11:07 224 23.3
2020-Jul-13 11:02 229 22.8
2020-Jul-13 10:57 229 22.8
2020-Jul-13 10:52 229 22.8
2020-Jul-13 10:47 229 22.8
2020-Jul-13 10:42 229 22.8
2020-Jul-13 10:37 229 22.2
2020-Jul-13 10:32 229 22.2
2020-Jul-13 10:27 229 22.2
2020-Jul-13 10:23 229 0 gusting 2 22.2
2020-Jul-13 10:17 229 22.2
2020-Jul-13 10:12 229 22.2
2020-Jul-13 10:07 229 22.2
2020-Jul-13 10:02 229 22.2
2020-Jul-13 09:57 229 22.2
2020-Jul-13 09:52 229 22.2
2020-Jul-13 09:47 229 22.2
2020-Jul-13 09:42 229 22.2
2020-Jul-13 09:37 229 22.2
2020-Jul-13 09:32 229 22.2
2020-Jul-13 09:27 229 22.2
2020-Jul-13 09:22 229 22.2
2020-Jul-13 09:17 229 22.2
2020-Jul-13 09:12 229 22.2
2020-Jul-13 09:07 229 22.2
2020-Jul-13 09:02 229 22.2
2020-Jul-13 08:57 229 0 gusting 4 22.2
2020-Jul-13 08:52 215 22.2
2020-Jul-13 08:47 229 1 gusting 5 22.2
2020-Jul-13 08:42 207 22.2
2020-Jul-13 08:37 207 0 gusting 5 22.2
2020-Jul-13 08:32 215 0 gusting 5 22.2
2020-Jul-13 08:27 249 0 gusting 4 22.2
2020-Jul-13 08:22 220 22.2
2020-Jul-13 08:17 260 22.8
2020-Jul-13 08:12 266 22.8
2020-Jul-13 08:07 266 22.8
2020-Jul-13 08:02 266 22.8
2020-Jul-13 07:57 266 22.8
2020-Jul-13 07:52 266 22.8
2020-Jul-13 07:47 266 22.8
2020-Jul-13 07:42 266 22.8
2020-Jul-13 07:37 266 22.8
2020-Jul-13 07:32 266 22.8
2020-Jul-13 07:27 266 22.8
2020-Jul-13 07:22 188 22.8
2020-Jul-13 07:17 188 22.8
2020-Jul-13 07:12 188 22.8
2020-Jul-13 07:07 153 22.8
2020-Jul-13 07:02 152 22.8
2020-Jul-13 06:57 150 22.8
2020-Jul-13 06:52 209 22.8
2020-Jul-13 06:47 209 23.3
2020-Jul-13 06:42 209 23.3
2020-Jul-13 06:37 209 23.3
2020-Jul-13 06:32 209 23.3
2020-Jul-13 06:27 209 23.3
2020-Jul-13 06:22 209 23.3
2020-Jul-13 06:17 208 23.3
2020-Jul-13 06:12 196 0 gusting 4 23.9
2020-Jul-13 06:07 223 23.9
2020-Jul-13 06:02 223 23.9
2020-Jul-13 05:57 223 23.9
2020-Jul-13 05:52 221 24.4
2020-Jul-13 05:47 243 24.4
2020-Jul-13 05:42 242 0 gusting 7 24.4
2020-Jul-13 05:37 263 2 gusting 7 24.4
2020-Jul-13 05:32 263 1 gusting 6 24.4
2020-Jul-13 05:27 205 2 gusting 7 24.4
2020-Jul-13 05:22 275 1 gusting 7 25.0
2020-Jul-13 05:17 271 2 gusting 6 25.0
2020-Jul-13 05:12 273 1 gusting 8 25.0
2020-Jul-13 05:07 239 4 gusting 8 25.0
2020-Jul-13 05:02 217 1 gusting 7 25.0
2020-Jul-13 04:57 292 2 gusting 7 25.0
2020-Jul-13 04:52 150 2 gusting 6 25.0
2020-Jul-13 04:47 259 2 gusting 5 25.0
2020-Jul-13 04:42 196 1 gusting 5 25.0
2020-Jul-13 04:37 244 1 gusting 5 25.0
2020-Jul-13 04:32 244 0 gusting 2 25.0
2020-Jul-13 04:27 241 25.0
2020-Jul-13 04:22 286 25.0
2020-Jul-13 04:17 286 1 gusting 2 25.0
2020-Jul-13 04:12 272 25.0
2020-Jul-13 04:07 195 25.0
2020-Jul-13 04:02 195 25.0
2020-Jul-13 03:57 273 25.0
2020-Jul-13 03:52 232 0 gusting 2 25.0
2020-Jul-13 03:47 265 25.0
2020-Jul-13 03:42 265 1 gusting 6 25.0
2020-Jul-13 03:37 266 1 gusting 6 25.6
2020-Jul-13 03:32 268 1 gusting 6 25.6
2020-Jul-13 03:27 275 2 gusting 6 25.6
2020-Jul-13 03:22 263 0 gusting 7 25.6
2020-Jul-13 03:17 289 1 gusting 8 25.6
2020-Jul-13 03:12 281 3 gusting 8 25.6
2020-Jul-13 03:07 313 2 gusting 8 25.6
2020-Jul-13 03:02 26.1
2020-Jul-13 02:57 317 2 gusting 6 26.1
2020-Jul-13 02:52 272 2 gusting 6 26.1
2020-Jul-13 02:47 265 1 gusting 7 25.6
2020-Jul-13 02:42 271 1 gusting 8 25.6
2020-Jul-13 02:37 287 3 gusting 8 25.6
2020-Jul-13 02:32 005 0 gusting 8 25.6
2020-Jul-13 02:27 264 4 gusting 8 25.0
2020-Jul-13 02:22 221 25.6
2020-Jul-13 02:17 094 25.6
2020-Jul-13 02:12 094 25.6
2020-Jul-13 02:07 094 25.6
2020-Jul-13 02:02 094 26.1
2020-Jul-13 01:57 094 26.1
2020-Jul-13 01:52 094 26.7
2020-Jul-13 01:47 094 26.7
2020-Jul-13 01:42 165 1 gusting 7 27.2
2020-Jul-13 01:37 102 0 gusting 6 27.8
2020-Jul-13 01:32 107 0 gusting 6 28.9
2020-Jul-13 01:27 171 2 gusting 6 29.4
2020-Jul-13 01:22 283 0 gusting 6 29.4
2020-Jul-13 01:17 233 29.4
2020-Jul-13 01:12 263 0 gusting 5 29.4
2020-Jul-13 01:07 254 1 gusting 4 29.4
2020-Jul-13 01:02 279 1 gusting 6 30.0
2020-Jul-13 00:57 254 2 gusting 6 30.0
2020-Jul-13 00:52 255 1 gusting 6 30.0
2020-Jul-13 00:47 250 1 gusting 6 30.0
2020-Jul-13 00:42 262 1 gusting 6 30.0
2020-Jul-13 00:37 278 1 gusting 6 30.0
2020-Jul-13 00:32 272 0 gusting 5 30.0
2020-Jul-13 00:27 266 2 gusting 6 30.6
2020-Jul-13 00:22 275 0 gusting 6 30.6
2020-Jul-13 00:17 240 2 gusting 6 30.6
2020-Jul-13 00:12 315 0 gusting 6 30.6
2020-Jul-13 00:07 215 1 gusting 10 30.6
2020-Jul-13 00:02 271 3 gusting 10 30.6
2020-Jul-12 23:57 213 2 gusting 10 31.1
2020-Jul-12 23:52 262 2 gusting 6 31.1
2020-Jul-12 23:47 225 1 gusting 6 31.1
2020-Jul-12 23:42 225 0 gusting 10 31.1
2020-Jul-12 23:37 283 2 gusting 10 31.7
2020-Jul-12 23:32 250 3 gusting 8 31.7
2020-Jul-12 23:27 256 3 gusting 8 31.7
2020-Jul-12 23:22 294 2 gusting 10 31.7
2020-Jul-12 23:17 276 2 gusting 10 32.2
2020-Jul-12 23:12 225 2 gusting 8 32.2
2020-Jul-12 23:07 254 2 gusting 8 32.2
2020-Jul-12 23:02 260 3 gusting 8 32.2
2020-Jul-12 22:57 186 3 gusting 8 32.2
2020-Jul-12 22:52 205 3 gusting 8 32.2
2020-Jul-12 22:47 213 2 gusting 10 32.2
2020-Jul-12 22:42 229 5 gusting 10 32.2
2020-Jul-12 22:37 234 4 gusting 11 32.2
2020-Jul-12 22:32 185 5 gusting 11 32.2
2020-Jul-12 22:27 244 3 gusting 11 32.8
2020-Jul-12 22:22 228 5 gusting 11 32.8
2020-Jul-12 22:17 225 5 gusting 11 32.8
2020-Jul-12 22:12 181 4 gusting 8 33.3
2020-Jul-12 22:07 236 4 gusting 10 33.3
2020-Jul-12 22:02 240 2 gusting 10 33.3
2020-Jul-12 21:57 260 6 gusting 11 33.3
2020-Jul-12 21:52 206 2 gusting 11 33.3
2020-Jul-12 21:47 148 4 gusting 10 33.3
2020-Jul-12 21:42 200 2 gusting 11 33.3
2020-Jul-12 21:37 227 5 gusting 11 33.3
2020-Jul-12 21:32 231 4 gusting 11 33.3
2020-Jul-12 21:27 198 4 gusting 11 33.3
2020-Jul-12 21:22 238 4 gusting 10 33.3
2020-Jul-12 21:17 261 3 gusting 11 33.9
2020-Jul-12 21:12 253 4 gusting 11 33.9
2020-Jul-12 21:07 169 4 gusting 11 33.9
2020-Jul-12 21:02 199 2 gusting 10 33.9
2020-Jul-12 20:57 219 2 gusting 10 33.9
2020-Jul-12 20:52 224 4 gusting 10 33.9
2020-Jul-12 20:47 255 2 gusting 8 33.9
2020-Jul-12 20:42 256 3 gusting 8 33.9
2020-Jul-12 20:37 249 3 gusting 8 33.9
2020-Jul-12 20:32 234 4 gusting 8 33.9
2020-Jul-12 20:27 283 4 gusting 8 33.9
2020-Jul-12 20:22 194 2 gusting 12 33.3
2020-Jul-12 20:17 186 5 gusting 12 33.3
2020-Jul-12 20:12 214 6 gusting 11 33.3
2020-Jul-12 20:07 247 2 gusting 11 33.3
2020-Jul-12 20:02 221 5 gusting 10 33.3
2020-Jul-12 19:57 227 5 gusting 13 33.3
2020-Jul-12 19:52 259 4 gusting 13 33.3
2020-Jul-12 19:47 247 5 gusting 12 33.3
2020-Jul-12 19:42 241 7 gusting 12 33.3
2020-Jul-12 19:37 243 5 gusting 12 33.9
2020-Jul-12 19:32 266 6 gusting 12 33.9
2020-Jul-12 19:27 204 1 gusting 10 33.9
2020-Jul-12 19:22 275 4 gusting 12 33.9
2020-Jul-12 19:17 305 2 gusting 12 33.9
2020-Jul-12 19:12 248 3 gusting 10 33.3
2020-Jul-12 19:07 240 5 gusting 10 33.3
2020-Jul-12 19:02 196 5 gusting 12 32.8
2020-Jul-12 18:57 184 6 gusting 12 32.8
2020-Jul-12 18:52 214 4 gusting 12 32.8
2020-Jul-12 18:47 198 4 gusting 10 33.3
2020-Jul-12 18:42 240 5 gusting 10 33.3
2020-Jul-12 18:37 208 5 gusting 10 33.3
2020-Jul-12 18:32 165 4 gusting 11 32.8
2020-Jul-12 18:27 236 5 gusting 11 32.8
2020-Jul-12 18:22 250 3 gusting 10 32.2
2020-Jul-12 18:17 249 2 gusting 10 32.2
2020-Jul-12 18:12 283 4 gusting 12 31.7
2020-Jul-12 18:07 191 5 gusting 12 31.7
2020-Jul-12 18:02 172 2 gusting 10 31.7
2020-Jul-12 17:57 277 5 gusting 10 31.7
2020-Jul-12 17:52 212 5 gusting 8 32.2
2020-Jul-12 17:47 291 2 gusting 8 32.2
2020-Jul-12 17:42 202 2 gusting 8 32.2
2020-Jul-12 17:37 264 3 gusting 8 32.2
2020-Jul-12 17:32 274 2 gusting 10 31.7
2020-Jul-12 17:27 264 5 gusting 10 31.1
2020-Jul-12 17:22 355 4 gusting 8 31.1
2020-Jul-12 17:17 262 2 gusting 7 31.1
2020-Jul-12 17:13 188 2 gusting 6 30.6
2020-Jul-12 17:07 265 2 gusting 7 30.6
2020-Jul-12 17:02 243 2 gusting 10 30.6
2020-Jul-12 16:57 253 5 gusting 10 31.1
2020-Jul-12 16:52 252 4 gusting 10 31.1
2020-Jul-12 16:47 286 4 gusting 10 31.7
2020-Jul-12 16:42 212 2 gusting 10 31.7
2020-Jul-12 16:37 289 5 gusting 10 31.7
2020-Jul-12 16:32 256 4 gusting 10 31.7
2020-Jul-12 16:27 190 2 gusting 8 31.7
2020-Jul-12 16:22 211 2 gusting 8 31.7
2020-Jul-12 16:17 146 5 gusting 7 31.1
2020-Jul-12 16:12 017 4 gusting 12 31.1
2020-Jul-12 16:07 254 3 gusting 12 31.1
2020-Jul-12 16:02 259 4 gusting 11 31.1
2020-Jul-12 15:57 212 1 gusting 10 31.1
2020-Jul-12 15:52 205 4 gusting 10 30.6
2020-Jul-12 15:47 294 4 gusting 10 30.6
2020-Jul-12 15:42 252 3 gusting 6 30.6
2020-Jul-12 15:37 301 2 gusting 10 30.6
2020-Jul-12 15:32 284 0 gusting 10 30.0
2020-Jul-12 15:27 240 6 gusting 10 30.0
2020-Jul-12 15:22 266 2 gusting 8 30.0
2020-Jul-12 15:17 314 3 gusting 8 29.4
2020-Jul-12 15:12 209 2 gusting 10 29.4
2020-Jul-12 15:07 279 5 gusting 10 29.4
2020-Jul-12 15:02 229 2 gusting 10 29.4
2020-Jul-12 14:57 221 4 gusting 10 30.0
2020-Jul-12 14:52 244 3 gusting 10 30.0
2020-Jul-12 14:47 232 1 gusting 6 30.0
2020-Jul-12 14:42 015 2 gusting 8 29.4
2020-Jul-12 14:37 215 2 gusting 8 28.9
2020-Jul-12 14:32 249 2 gusting 10 28.9
2020-Jul-12 14:27 229 6 gusting 10 28.9
2020-Jul-12 14:22 273 2 gusting 8 28.9
2020-Jul-12 14:17 277 4 gusting 8 28.3
2020-Jul-12 14:12 247 3 gusting 8 28.3
2020-Jul-12 14:07 184 2 gusting 10 28.3
2020-Jul-12 14:02 223 2 gusting 10 28.3
2020-Jul-12 13:57 355 4 gusting 10 28.3
2020-Jul-12 13:52 252 4 gusting 8 28.3
2020-Jul-12 13:47 313 1 gusting 6 27.8
2020-Jul-12 13:42 252 2 gusting 7 27.8
2020-Jul-12 13:37 244 2 gusting 7 27.2
2020-Jul-12 13:32 234 3 gusting 8 27.2
2020-Jul-12 13:27 249 4 gusting 10 26.7
2020-Jul-12 13:22 206 6 gusting 10 26.7
2020-Jul-12 13:17 250 5 gusting 10 26.7
2020-Jul-12 13:12 267 2 gusting 10 26.7
2020-Jul-12 13:07 225 4 gusting 10 26.1
2020-Jul-12 13:02 252 4 gusting 10 25.6
2020-Jul-12 12:57 306 3 gusting 10 25.6
2020-Jul-12 12:52 271 4 gusting 10 25.6
2020-Jul-12 12:47 227 4 gusting 10 25.6
2020-Jul-12 12:42 269 3 gusting 10 25.0
2020-Jul-12 12:37 159 3 gusting 7 25.0
2020-Jul-12 12:32 245 2 gusting 8 24.4
2020-Jul-12 12:27 265 2 gusting 10 24.4
2020-Jul-12 12:22 211 4 gusting 10 23.9
2020-Jul-12 12:17 248 3 gusting 10 23.9
2020-Jul-12 12:12 229 2 gusting 10 23.9
2020-Jul-12 12:07 219 2 gusting 10 23.9
2020-Jul-12 12:02 211 4 gusting 10 23.3
2020-Jul-12 11:57 232 4 gusting 10 23.3
2020-Jul-12 11:52 231 4 gusting 8 23.3
2020-Jul-12 11:47 287 3 gusting 8 23.3
2020-Jul-12 11:42 190 3 gusting 7 23.3
2020-Jul-12 11:37 227 4 gusting 7 23.3
2020-Jul-12 11:32 226 4 gusting 10 23.3
2020-Jul-12 11:27 215 4 gusting 10 23.3
2020-Jul-12 11:22 179 2 gusting 10 23.3
2020-Jul-12 11:17 186 4 gusting 10 22.8
2020-Jul-12 11:12 214 2 gusting 8 22.8
2020-Jul-12 11:07 223 4 gusting 8 22.8
2020-Jul-12 11:02 180 2 gusting 7 22.8
2020-Jul-12 10:57 234 2 gusting 7 22.8
2020-Jul-12 10:52 239 2 gusting 6 22.8
2020-Jul-12 10:47 236 1 gusting 6 22.8
2020-Jul-12 10:42 227 2 gusting 6 22.2
2020-Jul-12 10:37 190 0 gusting 5 22.2
2020-Jul-12 10:32 203 1 gusting 5 22.2
2020-Jul-12 10:27 188 1 gusting 6 22.2
2020-Jul-12 10:22 206 2 gusting 6 22.2
2020-Jul-12 10:17 216 2 gusting 5 22.2
2020-Jul-12 10:12 193 1 gusting 6 22.2
2020-Jul-12 10:07 224 0 gusting 6 22.2
2020-Jul-12 10:02 199 22.2
2020-Jul-12 09:57 232 2 gusting 6 22.2
2020-Jul-12 09:52 182 2 gusting 7 22.2
2020-Jul-12 09:47 186 4 gusting 7 22.2
2020-Jul-12 09:42 212 1 gusting 6 22.2
2020-Jul-12 09:37 207 1 gusting 6 22.2
2020-Jul-12 09:32 213 2 gusting 7 22.8
2020-Jul-12 09:27 209 2 gusting 7 22.8
2020-Jul-12 09:22 272 1 gusting 6 22.8
2020-Jul-12 09:17 204 1 gusting 5 22.8
2020-Jul-12 09:12 225 2 gusting 6 22.8
2020-Jul-12 09:07 242 0 gusting 6 22.8
2020-Jul-12 09:02 217 1 gusting 8 22.8
2020-Jul-12 08:57 239 2 gusting 8 22.8
2020-Jul-12 08:52 243 1 gusting 6 22.8
2020-Jul-12 08:47 182 2 gusting 6 22.8
2020-Jul-12 08:42 192 2 gusting 5 22.8
2020-Jul-12 08:37 194 1 gusting 8 22.8
2020-Jul-12 08:32 221 2 gusting 8 22.8
2020-Jul-12 08:27 213 4 gusting 7 22.8
2020-Jul-12 08:22 172 3 gusting 7 22.8
2020-Jul-12 08:17 244 2 gusting 6 22.8
2020-Jul-12 08:12 198 1 gusting 6 22.8
2020-Jul-12 08:07 221 3 gusting 6 22.8
2020-Jul-12 08:02 186 2 gusting 10 22.8
2020-Jul-12 07:57 229 2 gusting 10 22.8
2020-Jul-12 07:52 261 4 gusting 10 22.8
2020-Jul-12 07:47 235 3 gusting 7 22.8
2020-Jul-12 07:42 199 3 gusting 10 22.8
2020-Jul-12 07:37 201 5 gusting 10 22.8
2020-Jul-12 07:32 223 4 gusting 8 23.3
2020-Jul-12 07:27 228 3 gusting 8 23.3
2020-Jul-12 07:22 240 2 gusting 6 23.3
2020-Jul-12 07:17 238 2 gusting 6 23.3
2020-Jul-12 07:12 238 2 gusting 7 23.3
2020-Jul-12 07:07 259 2 gusting 10 23.3
2020-Jul-12 07:02 252 1 gusting 10 23.3
2020-Jul-12 06:57 218 2 gusting 10 23.3
2020-Jul-12 06:52 223 2 gusting 7 23.3
2020-Jul-12 06:47 224 2 gusting 7 23.3
2020-Jul-12 06:42 229 3 gusting 6 23.3
2020-Jul-12 06:37 225 2 gusting 6 23.3
2020-Jul-12 06:32 224 2 gusting 6 23.3
2020-Jul-12 06:27 259 2 gusting 6 23.3
2020-Jul-12 06:22 198 2 gusting 11 23.3
2020-Jul-12 06:17 191 4 gusting 11 23.9
2020-Jul-12 06:12 174 2 gusting 6 23.9
2020-Jul-12 06:07 231 2 gusting 7 23.9
2020-Jul-12 06:02 177 2 gusting 7 23.9